Time,TemperatureF,DewpointF,PressureIn,WindDirection,WindDirectionDegrees,WindSpeedMPH,WindSpeedGustMPH,Humidity,HourlyPrecipIn,Conditions,Clouds,dailyrainin,SoftwareType,DateUTC
2013-05-01 00:01:00,66.9,59.1,29.90,SSW,212,8.0,9.0,76,0.00,,,0.00,Wunderground v.1.15,2013-05-01 05:01:00,
2013-05-01 00:06:00,66.9,59.1,29.90,South,184,8.0,12.0,76,0.00,,,0.00,Wunderground v.1.15,2013-05-01 05:06:00,
2013-05-01 00:11:00,66.9,59.1,29.90,South,175,8.0,10.0,76,0.00,,,0.00,Wunderground v.1.15,2013-05-01 05:11:00,
2013-05-01 00:16:00,66.9,59.1,29.91,SSW,205,8.0,10.0,76,0.00,,,0.00,Wunderground v.1.15,2013-05-01 05:16:00,
2013-05-01 00:21:00,66.9,59.1,29.91,SSW,199,8.0,10.0,76,0.00,,,0.00,Wunderground v.1.15,2013-05-01 05:21:00,
2013-05-01 00:26:00,66.7,58.9,29.91,SE,145,9.0,10.0,76,0.00,,,0.00,Wunderground v.1.15,2013-05-01 05:26:00,
2013-05-01 00:31:00,66.6,59.2,29.91,SSW,205,8.0,8.0,77,0.00,,,0.00,Wunderground v.1.15,2013-05-01 05:31:00,
2013-05-01 00:36:00,66.6,59.2,29.91,South,178,8.0,9.0,77,0.00,,,0.00,Wunderground v.1.15,2013-05-01 05:36:00,
2013-05-01 00:41:00,66.5,59.1,29.91,SE,137,8.0,8.0,77,0.00,,,0.00,Wunderground v.1.15,2013-05-01 05:41:00,
2013-05-01 00:46:00,66.4,59.0,29.91,SSW,205,8.0,9.0,77,0.00,,,0.00,Wunderground v.1.15,2013-05-01 05:46:00,
2013-05-01 00:51:00,66.3,58.9,29.91,SSW,204,8.0,8.0,77,0.00,,,0.00,Wunderground v.1.15,2013-05-01 05:51:00,
2013-05-01 00:56:00,66.2,58.8,29.91,South,184,9.0,9.0,77,0.00,,,0.00,Wunderground v.1.15,2013-05-01 05:56:00,
2013-05-01 01:02:00,66.0,58.9,29.91,South,183,8.0,9.0,78,0.00,,,0.00,Wunderground v.1.15,2013-05-01 06:02:00,
2013-05-01 01:07:00,66.0,58.9,29.91,South,179,8.0,12.0,78,0.00,,,0.00,Wunderground v.1.15,2013-05-01 06:07:00,
2013-05-01 01:12:00,66.0,58.9,29.91,SW,216,8.0,8.0,78,0.00,,,0.00,Wunderground v.1.15,2013-05-01 06:12:00,
2013-05-01 01:17:00,65.8,58.7,29.91,South,185,8.0,10.0,78,0.00,,,0.00,Wunderground v.1.15,2013-05-01 06:17:00,
2013-05-01 01:22:00,65.7,58.7,29.91,SSW,194,8.0,10.0,78,0.00,,,0.00,Wunderground v.1.15,2013-05-01 06:22:00,
2013-05-01 01:27:00,65.5,58.5,29.91,SSW,194,8.0,10.0,78,0.00,,,0.00,Wunderground v.1.15,2013-05-01 06:27:00,
2013-05-01 01:32:00,65.3,58.6,29.91,SSW,194,8.0,9.0,79,0.00,,,0.00,Wunderground v.1.15,2013-05-01 06:32:00,
2013-05-01 01:37:00,65.1,58.4,29.91,SSW,213,8.0,9.0,79,0.00,,,0.00,Wunderground v.1.15,2013-05-01 06:37:00,
2013-05-01 01:42:00,64.9,58.6,29.92,SSW,204,8.0,9.0,80,0.00,,,0.00,Wunderground v.1.15,2013-05-01 06:42:00,
2013-05-01 01:47:00,64.4,58.1,29.92,SSW,211,8.0,9.0,80,0.00,,,0.00,Wunderground v.1.15,2013-05-01 06:47:00,
2013-05-01 01:52:00,64.0,58.1,29.92,SSW,211,7.0,8.0,81,0.00,,,0.00,Wunderground v.1.15,2013-05-01 06:52:00,
2013-05-01 01:57:00,63.6,58.0,29.92,SSW,206,7.0,8.0,82,0.00,,,0.00,Wunderground v.1.15,2013-05-01 06:57:00,
2013-05-01 02:03:00,63.0,57.8,29.92,SSW,209,6.0,7.0,83,0.00,,,0.00,Wunderground v.1.15,2013-05-01 07:03:00,
2013-05-01 02:08:00,62.6,57.4,29.92,SSW,209,6.0,7.0,83,0.00,,,0.00,Wunderground v.1.15,2013-05-01 07:08:00,
2013-05-01 02:13:00,62.5,57.3,29.92,SSW,209,6.0,7.0,83,0.00,,,0.00,Wunderground v.1.15,2013-05-01 07:13:00,
2013-05-01 02:18:00,62.5,57.3,29.92,SSW,213,6.0,7.0,83,0.00,,,0.00,Wunderground v.1.15,2013-05-01 07:18:00,
2013-05-01 02:24:00,62.4,57.5,29.92,SW,215,7.0,8.0,84,0.00,,,0.00,Wunderground v.1.15,2013-05-01 07:24:00,
2013-05-01 02:29:00,62.2,57.3,29.92,South,191,7.0,8.0,84,0.00,,,0.00,Wunderground v.1.15,2013-05-01 07:29:00,
2013-05-01 02:34:00,62.2,57.3,29.92,SSW,208,7.0,9.0,84,0.00,,,0.00,Wunderground v.1.15,2013-05-01 07:34:00,
2013-05-01 02:40:00,62.4,57.5,29.92,SSW,199,8.0,8.0,84,0.00,,,0.00,Wunderground v.1.15,2013-05-01 07:40:00,
2013-05-01 02:45:00,61.9,57.0,29.92,SW,216,7.0,8.0,84,0.00,,,0.00,Wunderground v.1.15,2013-05-01 07:45:00,
2013-05-01 02:51:00,61.6,57.0,29.92,SSW,211,7.0,7.0,85,0.00,,,0.00,Wunderground v.1.15,2013-05-01 07:51:00,
2013-05-01 02:56:00,61.6,57.0,29.92,SSW,213,7.0,9.0,85,0.00,,,0.00,Wunderground v.1.15,2013-05-01 07:56:00,
2013-05-01 03:02:00,62.0,57.4,29.93,SSW,200,7.0,8.0,85,0.00,,,0.00,Wunderground v.1.15,2013-05-01 08:02:00,
2013-05-01 03:08:00,61.9,57.0,29.93,SW,222,7.0,10.0,84,0.00,,,0.00,Wunderground v.1.15,2013-05-01 08:08:00,
2013-05-01 03:14:00,61.1,56.6,29.93,SW,228,7.0,7.0,85,0.00,,,0.00,Wunderground v.1.15,2013-05-01 08:14:00,
2013-05-01 03:20:00,60.8,56.6,29.93,SW,222,7.0,7.0,86,0.00,,,0.00,Wunderground v.1.15,2013-05-01 08:20:00,
2013-05-01 03:26:00,60.5,56.3,29.93,SW,227,7.0,7.0,86,0.00,,,0.00,Wunderground v.1.15,2013-05-01 08:26:00,
2013-05-01 03:31:00,60.3,56.1,29.94,SW,227,7.0,7.0,86,0.00,,,0.00,Wunderground v.1.15,2013-05-01 08:31:00,
2013-05-01 03:36:00,60.2,56.3,29.94,SW,227,6.0,7.0,87,0.00,,,0.00,Wunderground v.1.15,2013-05-01 08:36:00,
2013-05-01 03:42:00,59.5,55.6,29.94,SW,232,5.0,5.0,87,0.00,,,0.00,Wunderground v.1.15,2013-05-01 08:42:00,
2013-05-01 03:48:00,59.0,55.4,29.95,SW,216,5.0,6.0,88,0.00,,,0.00,Wunderground v.1.15,2013-05-01 08:48:00,
2013-05-01 03:53:00,58.6,55.1,29.95,SW,216,5.0,6.0,88,0.00,,,0.00,Wunderground v.1.15,2013-05-01 08:53:00,
2013-05-01 03:58:00,58.4,54.9,29.95,SW,219,5.0,6.0,88,0.00,,,0.00,Wunderground v.1.15,2013-05-01 08:58:00,
2013-05-01 04:03:00,58.3,55.1,29.95,SSW,211,5.0,6.0,89,0.00,,,0.00,Wunderground v.1.15,2013-05-01 09:03:00,
2013-05-01 04:08:00,58.2,55.0,29.96,SSW,213,6.0,6.0,89,0.00,,,0.00,Wunderground v.1.15,2013-05-01 09:08:00,
2013-05-01 04:14:00,58.2,55.0,29.96,SSW,211,6.0,6.0,89,0.00,,,0.00,Wunderground v.1.15,2013-05-01 09:14:00,
2013-05-01 04:19:00,58.6,55.4,29.96,SW,216,6.0,8.0,89,0.00,,,0.00,Wunderground v.1.15,2013-05-01 09:19:00,
2013-05-01 04:25:00,59.3,55.7,29.96,SW,223,6.0,7.0,88,0.00,,,0.00,Wunderground v.1.15,2013-05-01 09:25:00,
2013-05-01 04:30:00,59.5,55.9,29.96,SSW,192,6.0,7.0,88,0.00,,,0.00,Wunderground v.1.15,2013-05-01 09:30:00,
2013-05-01 04:36:00,59.3,55.7,29.96,SW,219,5.0,7.0,88,0.00,,,0.00,Wunderground v.1.15,2013-05-01 09:36:00,
2013-05-01 04:42:00,58.7,55.2,29.96,SW,215,4.0,4.0,88,0.00,,,0.00,Wunderground v.1.15,2013-05-01 09:42:00,
2013-05-01 04:47:00,58.2,55.0,29.97,SSW,207,3.0,4.0,89,0.00,,,0.00,Wunderground v.1.15,2013-05-01 09:47:00,
2013-05-01 04:52:00,58.2,55.0,29.97,SSW,199,3.0,4.0,89,0.00,,,0.00,Wunderground v.1.15,2013-05-01 09:52:00,
2013-05-01 04:57:00,58.3,55.1,29.97,SSW,208,3.0,5.0,89,0.00,,,0.00,Wunderground v.1.15,2013-05-01 09:57:00,
2013-05-01 05:02:00,58.2,55.0,29.97,SW,218,4.0,5.0,89,0.00,,,0.00,Wunderground v.1.15,2013-05-01 10:02:00,
2013-05-01 05:07:00,58.0,54.8,29.97,SSW,204,4.0,5.0,89,0.00,,,0.00,Wunderground v.1.15,2013-05-01 10:07:00,
2013-05-01 05:12:00,57.7,54.5,29.97,SSW,207,3.0,5.0,89,0.00,,,0.00,Wunderground v.1.15,2013-05-01 10:12:00,
2013-05-01 05:18:00,57.9,54.7,29.98,South,178,3.0,5.0,89,0.00,,,0.00,Wunderground v.1.15,2013-05-01 10:18:00,
2013-05-01 05:23:00,58.1,54.9,29.97,SSW,198,3.0,6.0,89,0.00,,,0.00,Wunderground v.1.15,2013-05-01 10:23:00,
2013-05-01 05:28:00,57.9,54.4,29.98,SSE,166,5.0,6.0,88,0.00,,,0.00,Wunderground v.1.15,2013-05-01 10:28:00,
2013-05-01 05:33:00,57.8,54.6,29.98,SSE,164,6.0,6.0,89,0.00,,,0.00,Wunderground v.1.15,2013-05-01 10:33:00,
2013-05-01 05:38:00,56.9,53.7,29.98,SSE,156,6.0,6.0,89,0.00,,,0.00,Wunderground v.1.15,2013-05-01 10:38:00,
2013-05-01 05:43:00,56.4,53.5,29.98,SSE,166,5.0,6.0,90,0.00,,,0.00,Wunderground v.1.15,2013-05-01 10:43:00,
2013-05-01 05:48:00,57.1,54.2,29.98,SSE,167,6.0,6.0,90,0.00,,,0.00,Wunderground v.1.15,2013-05-01 10:48:00,
2013-05-01 05:53:00,57.2,54.0,29.98,South,175,6.0,6.0,89,0.00,,,0.00,Wunderground v.1.15,2013-05-01 10:53:00,
2013-05-01 05:58:00,56.6,53.7,29.98,South,179,5.0,6.0,90,0.00,,,0.00,Wunderground v.1.15,2013-05-01 10:58:00,
2013-05-01 06:04:00,57.2,54.3,29.99,South,175,4.0,5.0,90,0.00,,,0.00,Wunderground v.1.15,2013-05-01 11:04:00,
2013-05-01 06:09:00,57.2,54.0,29.99,South,171,4.0,6.0,89,0.00,,,0.00,Wunderground v.1.15,2013-05-01 11:09:00,
2013-05-01 06:14:00,57.6,54.7,29.99,SSW,199,5.0,6.0,90,0.00,,,0.00,Wunderground v.1.15,2013-05-01 11:14:00,
2013-05-01 06:19:00,58.2,55.0,29.99,South,183,5.0,6.0,89,0.00,,,0.00,Wunderground v.1.15,2013-05-01 11:19:00,
2013-05-01 06:24:00,58.4,54.9,29.99,SSE,168,5.0,6.0,88,0.00,,,0.00,Wunderground v.1.15,2013-05-01 11:24:00,
2013-05-01 06:30:00,58.4,54.5,29.99,SSE,162,5.0,5.0,87,0.00,,,0.00,Wunderground v.1.15,2013-05-01 11:30:00,
2013-05-01 06:35:00,58.7,55.2,29.99,SW,215,5.0,5.0,88,0.00,,,0.00,Wunderground v.1.15,2013-05-01 11:35:00,
2013-05-01 06:40:00,58.8,54.9,30.00,SW,226,3.0,3.0,87,0.00,,,0.00,Wunderground v.1.15,2013-05-01 11:40:00,
2013-05-01 06:45:00,58.9,55.4,30.00,SSW,209,2.0,3.0,88,0.00,,,0.00,Wunderground v.1.15,2013-05-01 11:45:00,
2013-05-01 06:50:00,59.5,55.6,30.00,SSE,166,3.0,3.0,87,0.00,,,0.00,Wunderground v.1.15,2013-05-01 11:50:00,
2013-05-01 06:55:00,59.6,55.7,30.00,SSE,149,3.0,4.0,87,0.00,,,0.00,Wunderground v.1.15,2013-05-01 11:55:00,
2013-05-01 07:00:00,59.9,56.3,30.00,SSE,161,4.0,5.0,88,0.00,,,0.00,Wunderground v.1.15,2013-05-01 12:00:00,
2013-05-01 07:06:00,60.6,56.7,30.00,SSE,166,4.0,5.0,87,0.00,,,0.00,Wunderground v.1.15,2013-05-01 12:06:00,
2013-05-01 07:11:00,61.3,57.1,30.00,SSE,165,4.0,5.0,86,0.00,,,0.00,Wunderground v.1.15,2013-05-01 12:11:00,
2013-05-01 07:16:00,62.0,57.4,30.01,South,187,4.0,5.0,85,0.00,,,0.00,Wunderground v.1.15,2013-05-01 12:16:00,
2013-05-01 07:22:00,62.8,57.9,30.01,South,172,5.0,6.0,84,0.00,,,0.00,Wunderground v.1.15,2013-05-01 12:22:00,
2013-05-01 07:27:00,63.3,58.0,30.01,SSE,161,5.0,6.0,83,0.00,,,0.00,Wunderground v.1.15,2013-05-01 12:27:00,
2013-05-01 07:32:00,64.0,58.4,30.01,South,171,5.0,8.0,82,0.00,,,0.00,Wunderground v.1.15,2013-05-01 12:32:00,
2013-05-01 07:37:00,64.7,58.4,30.01,South,175,5.0,8.0,80,0.00,,,0.00,Wunderground v.1.15,2013-05-01 12:37:00,
2013-05-01 07:42:00,65.2,57.8,30.01,SSE,160,6.0,8.0,77,0.00,,,0.00,Wunderground v.1.15,2013-05-01 12:42:00,
2013-05-01 07:47:00,65.6,58.6,30.01,SSW,192,6.0,8.0,78,0.00,,,0.00,Wunderground v.1.15,2013-05-01 12:47:00,
2013-05-01 07:52:00,66.1,58.3,30.01,SE,142,6.0,7.0,76,0.00,,,0.00,Wunderground v.1.15,2013-05-01 12:52:00,
2013-05-01 07:57:00,66.4,58.6,30.01,SSE,167,7.0,8.0,76,0.00,,,0.00,Wunderground v.1.15,2013-05-01 12:57:00,
2013-05-01 08:03:00,67.1,58.9,30.02,SSE,161,7.0,9.0,75,0.00,,,0.00,Wunderground v.1.15,2013-05-01 13:03:00,
2013-05-01 08:09:00,67.8,59.2,30.02,South,169,8.0,9.0,74,0.00,,,0.00,Wunderground v.1.15,2013-05-01 13:09:00,
2013-05-01 08:14:00,68.2,58.8,30.02,South,173,8.0,10.0,72,0.00,,,0.00,Wunderground v.1.15,2013-05-01 13:14:00,
2013-05-01 08:20:00,68.7,59.7,30.02,South,182,7.0,7.0,73,0.00,,,0.00,Wunderground v.1.15,2013-05-01 13:20:00,
2013-05-01 08:26:00,69.1,59.3,30.02,SSE,164,7.0,9.0,71,0.00,,,0.00,Wunderground v.1.15,2013-05-01 13:26:00,
2013-05-01 08:31:00,69.5,59.3,30.02,SSE,160,8.0,8.0,70,0.00,,,0.00,Wunderground v.1.15,2013-05-01 13:31:00,
2013-05-01 08:36:00,70.1,59.0,30.03,SSW,196,8.0,9.0,68,0.00,,,0.00,Wunderground v.1.15,2013-05-01 13:36:00,
2013-05-01 08:41:00,70.5,59.4,30.03,SSW,208,8.0,10.0,68,0.00,,,0.00,Wunderground v.1.15,2013-05-01 13:41:00,
2013-05-01 08:46:00,70.9,59.0,30.03,SSE,158,8.0,10.0,66,0.00,,,0.00,Wunderground v.1.15,2013-05-01 13:46:00,
2013-05-01 08:52:00,71.1,58.7,30.03,South,171,8.0,11.0,65,0.00,,,0.00,Wunderground v.1.15,2013-05-01 13:52:00,
2013-05-01 08:57:00,71.6,59.2,30.03,SE,142,8.0,11.0,65,0.00,,,0.00,Wunderground v.1.15,2013-05-01 13:57:00,
2013-05-01 09:03:00,71.9,58.6,30.02,SE,142,8.0,9.0,63,0.00,,,0.00,Wunderground v.1.15,2013-05-01 14:03:00,
2013-05-01 09:08:00,72.0,58.7,30.02,SSW,206,9.0,11.0,63,0.00,,,0.00,Wunderground v.1.15,2013-05-01 14:08:00,
2013-05-01 09:13:00,72.5,59.6,30.02,SSW,211,8.0,9.0,64,0.00,,,0.00,Wunderground v.1.15,2013-05-01 14:13:00,
2013-05-01 09:18:00,72.6,58.8,30.02,South,175,8.0,12.0,62,0.00,,,0.00,Wunderground v.1.15,2013-05-01 14:18:00,
2013-05-01 09:23:00,73.0,59.2,30.02,SSE,149,8.0,10.0,62,0.00,,,0.00,Wunderground v.1.15,2013-05-01 14:23:00,
2013-05-01 09:28:00,73.3,59.5,30.03,SSE,151,7.0,10.0,62,0.00,,,0.00,Wunderground v.1.15,2013-05-01 14:28:00,
2013-05-01 09:33:00,73.6,58.9,30.03,SSW,206,8.0,10.0,60,0.00,,,0.00,Wunderground v.1.15,2013-05-01 14:33:00,
2013-05-01 09:38:00,73.7,59.4,30.03,SE,142,8.0,10.0,61,0.00,,,0.00,Wunderground v.1.15,2013-05-01 14:38:00,
2013-05-01 09:43:00,73.9,58.7,30.03,SSE,159,8.0,9.0,59,0.00,,,0.00,Wunderground v.1.15,2013-05-01 14:43:00,
2013-05-01 09:48:00,74.0,58.8,30.03,SSE,166,8.0,9.0,59,0.00,,,0.00,Wunderground v.1.15,2013-05-01 14:48:00,
2013-05-01 09:54:00,74.5,58.8,30.03,SSW,211,8.0,9.0,58,0.00,,,0.00,Wunderground v.1.15,2013-05-01 14:54:00,
2013-05-01 09:59:00,74.9,59.1,30.03,SW,232,8.0,9.0,58,0.00,,,0.00,Wunderground v.1.15,2013-05-01 14:59:00,
2013-05-01 10:04:00,75.3,59.0,30.04,South,191,8.0,8.0,57,0.00,,,0.00,Wunderground v.1.15,2013-05-01 15:04:00,
2013-05-01 10:09:00,75.7,59.4,30.03,WSW,251,7.0,9.0,57,0.00,,,0.00,Wunderground v.1.15,2013-05-01 15:09:00,
2013-05-01 10:14:00,75.8,58.5,30.04,SW,220,7.0,11.0,55,0.00,,,0.00,Wunderground v.1.15,2013-05-01 15:14:00,
2013-05-01 10:19:00,75.9,58.6,30.04,SSE,167,7.0,11.0,55,0.00,,,0.00,Wunderground v.1.15,2013-05-01 15:19:00,
2013-05-01 10:25:00,76.7,58.8,30.04,SE,140,6.0,8.0,54,0.00,,,0.00,Wunderground v.1.15,2013-05-01 15:25:00,
2013-05-01 10:30:00,76.6,58.7,30.04,SSW,208,6.0,6.0,54,0.00,,,0.00,Wunderground v.1.15,2013-05-01 15:30:00,
2013-05-01 10:35:00,76.8,58.4,30.04,WSW,237,7.0,10.0,53,0.00,,,0.00,Wunderground v.1.15,2013-05-01 15:35:00,
2013-05-01 10:40:00,77.1,58.6,30.04,SSW,213,7.0,7.0,53,0.00,,,0.00,Wunderground v.1.15,2013-05-01 15:40:00,
2013-05-01 10:45:00,77.5,59.0,30.04,WSW,237,7.0,8.0,53,0.00,,,0.00,Wunderground v.1.15,2013-05-01 15:45:00,
2013-05-01 10:50:00,77.6,58.6,30.04,SSW,202,6.0,6.0,52,0.00,,,0.00,Wunderground v.1.15,2013-05-01 15:50:00,
2013-05-01 10:55:00,77.8,57.1,30.04,SW,225,6.0,7.0,49,0.00,,,0.00,Wunderground v.1.15,2013-05-01 15:55:00,
2013-05-01 11:00:00,78.0,57.9,30.04,SSE,168,6.0,6.0,50,0.00,,,0.00,Wunderground v.1.15,2013-05-01 16:00:00,
2013-05-01 11:06:00,78.3,57.0,30.04,WSW,239,5.0,10.0,48,0.00,,,0.00,Wunderground v.1.15,2013-05-01 16:06:00,
2013-05-01 11:11:00,78.6,56.7,30.04,WSW,256,4.0,4.0,47,0.00,,,0.00,Wunderground v.1.15,2013-05-01 16:11:00,
2013-05-01 11:16:00,79.2,56.0,30.04,SE,133,4.0,8.0,45,0.00,,,0.00,Wunderground v.1.15,2013-05-01 16:16:00,
2013-05-01 11:21:00,79.2,56.0,30.04,SSW,194,4.0,8.0,45,0.00,,,0.00,Wunderground v.1.15,2013-05-01 16:21:00,
2013-05-01 11:26:00,79.2,57.2,30.04,SE,127,5.0,8.0,47,0.00,,,0.00,Wunderground v.1.15,2013-05-01 16:26:00,
2013-05-01 11:31:00,79.6,57.0,30.03,SW,220,5.0,8.0,46,0.00,,,0.00,Wunderground v.1.15,2013-05-01 16:31:00,
2013-05-01 11:36:00,79.0,54.6,30.03,WNW,289,6.0,11.0,43,0.00,,,0.00,Wunderground v.1.15,2013-05-01 16:36:00,
2013-05-01 11:41:00,79.7,56.5,30.03,SSW,213,6.0,10.0,45,0.00,,,0.00,Wunderground v.1.15,2013-05-01 16:41:00,
2013-05-01 11:46:00,79.7,55.2,30.03,South,180,6.0,11.0,43,0.00,,,0.00,Wunderground v.1.15,2013-05-01 16:46:00,
2013-05-01 11:51:00,79.7,55.2,30.03,ESE,108,7.0,7.0,43,0.00,,,0.00,Wunderground v.1.15,2013-05-01 16:51:00,
2013-05-01 11:56:00,79.6,55.1,30.03,SW,236,6.0,9.0,43,0.00,,,0.00,Wunderground v.1.15,2013-05-01 16:56:00,
2013-05-01 12:02:00,79.8,54.7,30.03,SSE,157,7.0,12.0,42,0.00,,,0.00,Wunderground v.1.15,2013-05-01 17:02:00,
2013-05-01 12:07:00,79.7,53.9,30.03,SE,126,8.0,15.0,41,0.00,,,0.00,Wunderground v.1.15,2013-05-01 17:07:00,
2013-05-01 12:13:00,79.7,55.9,30.03,SW,222,8.0,11.0,44,0.00,,,0.00,Wunderground v.1.15,2013-05-01 17:13:00,
2013-05-01 12:18:00,79.9,55.4,30.03,South,190,9.0,11.0,43,0.00,,,0.00,Wunderground v.1.15,2013-05-01 17:18:00,
2013-05-01 12:23:00,80.0,55.5,30.02,SSW,211,7.0,10.0,43,0.00,,,0.00,Wunderground v.1.15,2013-05-01 17:23:00,
2013-05-01 12:28:00,79.9,55.4,30.02,WSW,244,7.0,10.0,43,0.00,,,0.00,Wunderground v.1.15,2013-05-01 17:28:00,
2013-05-01 12:33:00,80.2,55.7,30.02,SSW,195,8.0,12.0,43,0.00,,,0.00,Wunderground v.1.15,2013-05-01 17:33:00,
2013-05-01 12:38:00,80.8,56.2,30.02,SW,231,8.0,12.0,43,0.00,,,0.00,Wunderground v.1.15,2013-05-01 17:38:00,
2013-05-01 12:43:00,80.8,54.9,30.02,SSE,152,8.0,11.0,41,0.00,,,0.00,Wunderground v.1.15,2013-05-01 17:43:00,
2013-05-01 12:48:00,80.7,54.8,30.02,SW,225,9.0,12.0,41,0.00,,,0.00,Wunderground v.1.15,2013-05-01 17:48:00,
2013-05-01 12:53:00,81.1,55.2,30.02,SE,128,8.0,11.0,41,0.00,,,0.00,Wunderground v.1.15,2013-05-01 17:53:00,
2013-05-01 12:58:00,80.7,54.1,30.02,SSW,213,6.0,11.0,40,0.00,,,0.00,Wunderground v.1.15,2013-05-01 17:58:00,
2013-05-01 13:04:00,81.1,53.8,30.02,SW,219,8.0,15.0,39,0.00,,,0.00,Wunderground v.1.15,2013-05-01 18:04:00,
2013-05-01 13:09:00,81.2,54.6,30.02,SSW,209,9.0,15.0,40,0.00,,,0.00,Wunderground v.1.15,2013-05-01 18:09:00,
2013-05-01 13:14:00,81.4,54.8,30.02,ESE,116,9.0,13.0,40,0.00,,,0.00,Wunderground v.1.15,2013-05-01 18:14:00,
2013-05-01 13:19:00,81.2,53.9,30.02,SE,126,8.0,13.0,39,0.00,,,0.00,Wunderground v.1.15,2013-05-01 18:19:00,
2013-05-01 13:24:00,81.1,53.8,30.02,ESE,122,9.0,12.0,39,0.00,,,0.00,Wunderground v.1.15,2013-05-01 18:24:00,
2013-05-01 13:29:00,80.8,54.2,30.02,SE,131,9.0,14.0,40,0.00,,,0.00,Wunderground v.1.15,2013-05-01 18:29:00,
2013-05-01 13:34:00,80.6,54.7,30.02,SSE,151,8.0,9.0,41,0.00,,,0.00,Wunderground v.1.15,2013-05-01 18:34:00,
2013-05-01 13:39:00,81.8,53.7,30.02,SSE,156,9.0,14.0,38,0.00,,,0.00,Wunderground v.1.15,2013-05-01 18:39:00,
2013-05-01 13:44:00,81.6,54.2,30.02,SSE,161,11.0,15.0,39,0.00,,,0.00,Wunderground v.1.15,2013-05-01 18:44:00,
2013-05-01 13:49:00,81.4,54.1,30.02,SE,124,11.0,15.0,39,0.00,,,0.00,Wunderground v.1.15,2013-05-01 18:49:00,
2013-05-01 13:54:00,81.1,55.2,30.02,East,100,7.0,13.0,41,0.00,,,0.00,Wunderground v.1.15,2013-05-01 18:54:00,
2013-05-01 13:59:00,81.4,53.4,30.02,South,187,7.0,14.0,38,0.00,,,0.00,Wunderground v.1.15,2013-05-01 18:59:00,
2013-05-01 14:05:00,81.9,54.5,30.02,ESE,116,9.0,12.0,39,0.00,,,0.00,Wunderground v.1.15,2013-05-01 19:05:00,
2013-05-01 14:10:00,81.4,54.8,30.02,SE,144,8.0,9.0,40,0.00,,,0.00,Wunderground v.1.15,2013-05-01 19:10:00,
2013-05-01 14:15:00,81.5,54.2,30.02,SSE,159,10.0,15.0,39,0.00,,,0.00,Wunderground v.1.15,2013-05-01 19:15:00,
2013-05-01 14:20:00,81.4,54.8,30.02,SE,144,9.0,9.0,40,0.00,,,0.00,Wunderground v.1.15,2013-05-01 19:20:00,
2013-05-01 14:25:00,82.1,55.4,30.02,SE,142,7.0,13.0,40,0.00,,,0.00,Wunderground v.1.15,2013-05-01 19:25:00,
2013-05-01 14:30:00,82.4,54.2,30.02,SSE,149,9.0,9.0,38,0.00,,,0.00,Wunderground v.1.15,2013-05-01 19:30:00,
2013-05-01 14:35:00,81.9,53.8,30.02,East,100,10.0,13.0,38,0.00,,,0.00,Wunderground v.1.15,2013-05-01 19:35:00,
2013-05-01 14:40:00,81.9,53.8,30.02,ESE,113,8.0,9.0,38,0.00,,,0.00,Wunderground v.1.15,2013-05-01 19:40:00,
2013-05-01 14:45:00,81.9,53.8,30.02,SSE,155,9.0,16.0,38,0.00,,,0.00,Wunderground v.1.15,2013-05-01 19:45:00,
2013-05-01 14:50:00,82.3,53.4,30.02,SSW,199,11.0,11.0,37,0.00,,,0.00,Wunderground v.1.15,2013-05-01 19:50:00,
2013-05-01 14:55:00,82.5,55.0,30.02,SSW,202,10.0,14.0,39,0.00,,,0.00,Wunderground v.1.15,2013-05-01 19:55:00,
2013-05-01 15:00:00,82.6,54.4,30.02,SW,223,12.0,12.0,38,0.00,,,0.00,Wunderground v.1.15,2013-05-01 20:00:00,
2013-05-01 15:06:00,82.7,55.2,30.02,SSW,202,12.0,18.0,39,0.00,,,0.00,Wunderground v.1.15,2013-05-01 20:06:00,
2013-05-01 15:11:00,83.0,54.8,30.01,SW,232,9.0,12.0,38,0.00,,,0.00,Wunderground v.1.15,2013-05-01 20:11:00,
2013-05-01 15:16:00,83.7,56.1,30.01,SSW,205,8.0,16.0,39,0.00,,,0.00,Wunderground v.1.15,2013-05-01 20:16:00,
2013-05-01 15:21:00,83.6,55.3,30.02,SSW,204,10.0,10.0,38,0.00,,,0.00,Wunderground v.1.15,2013-05-01 20:21:00,
2013-05-01 15:26:00,83.1,54.1,30.02,SE,142,10.0,11.0,37,0.00,,,0.00,Wunderground v.1.15,2013-05-01 20:26:00,
2013-05-01 15:31:00,82.9,54.7,30.02,SSE,155,8.0,11.0,38,0.00,,,0.00,Wunderground v.1.15,2013-05-01 20:31:00,
2013-05-01 15:36:00,83.3,54.3,30.02,SSW,199,8.0,19.0,37,0.00,,,0.00,Wunderground v.1.15,2013-05-01 20:36:00,
2013-05-01 15:41:00,82.9,54.0,30.02,SE,135,12.0,14.0,37,0.00,,,0.00,Wunderground v.1.15,2013-05-01 20:41:00,
2013-05-01 15:46:00,82.1,54.0,30.02,ESE,106,14.0,17.0,38,0.00,,,0.00,Wunderground v.1.15,2013-05-01 20:46:00,
2013-05-01 15:51:00,82.4,54.2,30.02,ESE,114,11.0,11.0,38,0.00,,,0.00,Wunderground v.1.15,2013-05-01 20:51:00,
2013-05-01 15:56:00,83.0,54.0,30.01,SSW,198,9.0,13.0,37,0.00,,,0.00,Wunderground v.1.15,2013-05-01 20:56:00,
2013-05-01 16:01:00,82.9,54.0,30.01,SW,218,11.0,11.0,37,0.00,,,0.00,Wunderground v.1.15,2013-05-01 21:01:00,
2013-05-01 16:07:00,82.7,53.8,30.01,SE,126,10.0,17.0,37,0.00,,,0.00,Wunderground v.1.15,2013-05-01 21:07:00,
2013-05-01 16:12:00,83.2,55.0,30.01,SSW,203,11.0,12.0,38,0.00,,,0.00,Wunderground v.1.15,2013-05-01 21:12:00,
2013-05-01 16:17:00,82.9,54.0,30.01,SE,133,11.0,13.0,37,0.00,,,0.00,Wunderground v.1.15,2013-05-01 21:17:00,
2013-05-01 16:22:00,82.8,53.9,30.01,SSW,192,11.0,17.0,37,0.00,,,0.00,Wunderground v.1.15,2013-05-01 21:22:00,
2013-05-01 16:27:00,83.0,53.3,30.01,SW,227,12.0,17.0,36,0.00,,,0.00,Wunderground v.1.15,2013-05-01 21:27:00,
2013-05-01 16:33:00,83.4,54.4,30.01,SSE,151,11.0,15.0,37,0.00,,,0.00,Wunderground v.1.15,2013-05-01 21:33:00,
2013-05-01 16:38:00,83.3,53.6,30.01,SSE,158,10.0,17.0,36,0.00,,,0.00,Wunderground v.1.15,2013-05-01 21:38:00,
2013-05-01 16:43:00,82.8,53.9,30.01,SSE,152,12.0,14.0,37,0.00,,,0.00,Wunderground v.1.15,2013-05-01 21:43:00,
2013-05-01 16:48:00,82.9,54.0,30.01,South,187,12.0,14.0,37,0.00,,,0.00,Wunderground v.1.15,2013-05-01 21:48:00,
2013-05-01 16:53:00,82.7,54.5,30.01,SE,134,10.0,16.0,38,0.00,,,0.00,Wunderground v.1.15,2013-05-01 21:53:00,
2013-05-01 16:58:00,83.0,54.8,30.01,SE,142,11.0,16.0,38,0.00,,,0.00,Wunderground v.1.15,2013-05-01 21:58:00,
2013-05-01 17:04:00,83.0,54.0,30.01,SW,224,12.0,13.0,37,0.00,,,0.00,Wunderground v.1.15,2013-05-01 22:04:00,
2013-05-01 17:09:00,83.0,53.3,30.01,SE,142,12.0,18.0,36,0.00,,,0.00,Wunderground v.1.15,2013-05-01 22:09:00,
2013-05-01 17:14:00,82.6,54.4,30.01,South,190,13.0,19.0,38,0.00,,,0.00,Wunderground v.1.15,2013-05-01 22:14:00,
2013-05-01 17:19:00,82.6,52.9,30.01,SSE,155,14.0,19.0,36,0.00,,,0.00,Wunderground v.1.15,2013-05-01 22:19:00,
2013-05-01 17:24:00,82.2,54.8,30.01,SSE,147,12.0,14.0,39,0.00,,,0.00,Wunderground v.1.15,2013-05-01 22:24:00,
2013-05-01 17:29:00,82.1,54.0,30.01,SSE,157,12.0,14.0,38,0.00,,,0.00,Wunderground v.1.15,2013-05-01 22:29:00,
2013-05-01 17:34:00,82.0,54.6,30.01,SSE,160,11.0,14.0,39,0.00,,,0.00,Wunderground v.1.15,2013-05-01 22:34:00,
2013-05-01 17:39:00,81.8,54.4,30.01,SE,141,13.0,17.0,39,0.00,,,0.00,Wunderground v.1.15,2013-05-01 22:39:00,
2013-05-01 17:44:00,81.9,54.5,30.01,SE,132,13.0,15.0,39,0.00,,,0.00,Wunderground v.1.15,2013-05-01 22:44:00,
2013-05-01 17:49:00,82.0,54.6,30.01,SE,140,12.0,16.0,39,0.00,,,0.00,Wunderground v.1.15,2013-05-01 22:49:00,
2013-05-01 17:54:00,82.2,54.1,30.01,SE,139,12.0,16.0,38,0.00,,,0.00,Wunderground v.1.15,2013-05-01 22:54:00,
2013-05-01 17:59:00,82.1,55.4,30.01,South,175,12.0,16.0,40,0.00,,,0.00,Wunderground v.1.15,2013-05-01 22:59:00,
2013-05-01 18:05:00,82.0,54.6,30.00,SSE,149,12.0,16.0,39,0.00,,,0.00,Wunderground v.1.15,2013-05-01 23:05:00,
2013-05-01 18:10:00,81.8,55.1,30.00,SSE,164,13.0,13.0,40,0.00,,,0.00,Wunderground v.1.15,2013-05-01 23:10:00,
2013-05-01 18:15:00,81.7,55.7,30.00,SE,135,13.0,19.0,41,0.00,,,0.00,Wunderground v.1.15,2013-05-01 23:15:00,
2013-05-01 18:20:00,81.2,56.6,30.00,SE,138,15.0,17.0,43,0.00,,,0.00,Wunderground v.1.15,2013-05-01 23:20:00,
2013-05-01 18:25:00,81.0,57.0,30.01,SE,133,16.0,19.0,44,0.00,,,0.00,Wunderground v.1.15,2013-05-01 23:25:00,
2013-05-01 18:30:00,80.4,57.7,30.01,SE,135,15.0,15.0,46,0.00,,,0.00,Wunderground v.1.15,2013-05-01 23:30:00,
2013-05-01 18:35:00,80.2,56.3,30.01,SSE,155,14.0,15.0,44,0.00,,,0.00,Wunderground v.1.15,2013-05-01 23:35:00,
2013-05-01 18:40:00,80.0,56.1,30.01,SSE,157,14.0,14.0,44,0.00,,,0.00,Wunderground v.1.15,2013-05-01 23:40:00,
2013-05-01 18:45:00,79.9,55.4,30.01,SE,127,13.0,17.0,43,0.00,,,0.00,Wunderground v.1.15,2013-05-01 23:45:00,
2013-05-01 18:50:00,79.7,55.2,30.01,SE,132,14.0,14.0,43,0.00,,,0.00,Wunderground v.1.15,2013-05-01 23:50:00,
2013-05-01 18:55:00,79.4,56.2,30.01,SSE,147,14.0,14.0,45,0.00,,,0.00,Wunderground v.1.15,2013-05-01 23:55:00,
2013-05-01 19:00:00,79.2,56.0,30.01,SSE,149,13.0,13.0,45,0.00,,,0.00,Wunderground v.1.15,2013-05-02 00:00:00,
2013-05-01 19:06:00,78.9,56.4,30.01,SE,137,12.0,13.0,46,0.00,,,0.00,Wunderground v.1.15,2013-05-02 00:06:00,
2013-05-01 19:11:00,78.7,56.8,30.01,SE,134,10.0,11.0,47,0.00,,,0.00,Wunderground v.1.15,2013-05-02 00:11:00,
2013-05-01 19:16:00,78.4,57.1,30.02,SE,142,9.0,11.0,48,0.00,,,0.00,Wunderground v.1.15,2013-05-02 00:16:00,
2013-05-01 19:21:00,78.1,56.8,30.02,SE,135,8.0,9.0,48,0.00,,,0.00,Wunderground v.1.15,2013-05-02 00:21:00,
2013-05-01 19:26:00,77.8,56.5,30.02,SE,131,9.0,10.0,48,0.00,,,0.00,Wunderground v.1.15,2013-05-02 00:26:00,
2013-05-01 19:31:00,77.3,56.6,30.02,SE,140,8.0,8.0,49,0.00,,,0.00,Wunderground v.1.15,2013-05-02 00:31:00,
2013-05-01 19:36:00,76.8,56.8,30.02,SE,135,7.0,8.0,50,0.00,,,0.00,Wunderground v.1.15,2013-05-02 00:36:00,
2013-05-01 19:41:00,76.4,56.4,30.02,SE,136,7.0,7.0,50,0.00,,,0.00,Wunderground v.1.15,2013-05-02 00:41:00,
2013-05-01 19:46:00,75.9,56.5,30.02,SE,141,7.0,8.0,51,0.00,,,0.00,Wunderground v.1.15,2013-05-02 00:46:00,
2013-05-01 19:51:00,75.5,56.6,30.02,SE,133,7.0,7.0,52,0.00,,,0.00,Wunderground v.1.15,2013-05-02 00:51:00,
2013-05-01 19:56:00,74.9,56.6,30.03,SE,132,7.0,8.0,53,0.00,,,0.00,Wunderground v.1.15,2013-05-02 00:56:00,
2013-05-01 20:02:00,74.6,56.3,30.03,SE,126,7.0,7.0,53,0.00,,,0.00,Wunderground v.1.15,2013-05-02 01:02:00,
2013-05-01 20:07:00,74.2,56.5,30.03,SE,131,7.0,7.0,54,0.00,,,0.00,Wunderground v.1.15,2013-05-02 01:07:00,
2013-05-01 20:12:00,73.7,56.5,30.03,SE,141,6.0,7.0,55,0.00,,,0.00,Wunderground v.1.15,2013-05-02 01:12:00,
2013-05-01 20:17:00,73.3,56.7,30.03,SE,131,6.0,7.0,56,0.00,,,0.00,Wunderground v.1.15,2013-05-02 01:17:00,
2013-05-01 20:22:00,72.9,56.8,30.04,ESE,119,6.0,7.0,57,0.00,,,0.00,Wunderground v.1.15,2013-05-02 01:22:00,
2013-05-01 20:27:00,72.6,56.5,30.04,ESE,122,7.0,7.0,57,0.00,,,0.00,Wunderground v.1.15,2013-05-02 01:27:00,
2013-05-01 20:32:00,72.3,56.7,30.04,SE,129,6.0,7.0,58,0.00,,,0.00,Wunderground v.1.15,2013-05-02 01:32:00,
2013-05-01 20:37:00,72.0,56.4,30.04,SE,127,6.0,7.0,58,0.00,,,0.00,Wunderground v.1.15,2013-05-02 01:37:00,
2013-05-01 20:42:00,71.7,56.6,30.04,SE,126,6.0,6.0,59,0.00,,,0.00,Wunderground v.1.15,2013-05-02 01:42:00,
2013-05-01 20:48:00,71.4,56.3,30.04,SE,130,6.0,6.0,59,0.00,,,0.00,Wunderground v.1.15,2013-05-02 01:48:00,
2013-05-01 20:53:00,71.2,56.1,30.04,SE,127,5.0,5.0,59,0.00,,,0.00,Wunderground v.1.15,2013-05-02 01:53:00,
2013-05-01 20:58:00,71.1,56.0,30.04,SE,127,5.0,6.0,59,0.00,,,0.00,Wunderground v.1.15,2013-05-02 01:58:00,
2013-05-01 21:04:00,70.7,56.1,30.04,SE,126,5.0,7.0,60,0.00,,,0.00,Wunderground v.1.15,2013-05-02 02:04:00,
2013-05-01 21:09:00,70.4,55.8,30.05,SE,127,5.0,7.0,60,0.00,,,0.00,Wunderground v.1.15,2013-05-02 02:09:00,
2013-05-01 21:14:00,70.1,56.0,30.05,SE,130,6.0,6.0,61,0.00,,,0.00,Wunderground v.1.15,2013-05-02 02:14:00,
2013-05-01 21:19:00,69.9,55.8,30.05,SE,130,6.0,7.0,61,0.00,,,0.00,Wunderground v.1.15,2013-05-02 02:19:00,
2013-05-01 21:24:00,69.5,55.9,30.05,SE,131,6.0,6.0,62,0.00,,,0.00,Wunderground v.1.15,2013-05-02 02:24:00,
2013-05-01 21:29:00,69.3,56.2,30.05,SE,135,6.0,7.0,63,0.00,,,0.00,Wunderground v.1.15,2013-05-02 02:29:00,
2013-05-01 21:34:00,69.1,56.0,30.05,SE,128,7.0,7.0,63,0.00,,,0.00,Wunderground v.1.15,2013-05-02 02:34:00,
2013-05-01 21:39:00,68.9,56.2,30.05,SE,138,7.0,7.0,64,0.00,,,0.00,Wunderground v.1.15,2013-05-02 02:39:00,
2013-05-01 21:45:00,68.5,56.3,30.06,SE,132,6.0,8.0,65,0.00,,,0.00,Wunderground v.1.15,2013-05-02 02:45:00,
2013-05-01 21:50:00,68.2,56.0,30.05,SE,126,5.0,5.0,65,0.00,,,0.00,Wunderground v.1.15,2013-05-02 02:50:00,
2013-05-01 21:55:00,68.0,56.2,30.06,ESE,121,5.0,5.0,66,0.00,,,0.00,Wunderground v.1.15,2013-05-02 02:55:00,
2013-05-01 22:00:00,67.5,56.2,30.06,ESE,119,4.0,4.0,67,0.00,,,0.00,Wunderground v.1.15,2013-05-02 03:00:00,
2013-05-01 22:06:00,67.0,56.1,30.06,ESE,116,4.0,5.0,68,0.00,,,0.00,Wunderground v.1.15,2013-05-02 03:06:00,
2013-05-01 22:11:00,66.8,55.9,30.06,SE,134,4.0,4.0,68,0.00,,,0.00,Wunderground v.1.15,2013-05-02 03:11:00,
2013-05-01 22:16:00,66.6,56.1,30.06,SE,128,4.0,6.0,69,0.00,,,0.00,Wunderground v.1.15,2013-05-02 03:16:00,
2013-05-01 22:21:00,67.0,56.1,30.06,SE,126,5.0,6.0,68,0.00,,,0.00,Wunderground v.1.15,2013-05-02 03:21:00,
2013-05-01 22:26:00,67.1,56.2,30.06,ESE,123,6.0,7.0,68,0.00,,,0.00,Wunderground v.1.15,2013-05-02 03:26:00,
2013-05-01 22:31:00,67.0,56.1,30.06,ESE,116,6.0,6.0,68,0.00,,,0.00,Wunderground v.1.15,2013-05-02 03:31:00,
2013-05-01 22:36:00,67.0,56.1,30.05,SE,135,6.0,6.0,68,0.00,,,0.00,Wunderground v.1.15,2013-05-02 03:36:00,
2013-05-01 22:41:00,67.0,56.1,30.05,SE,135,6.0,6.0,68,0.00,,,0.00,Wunderground v.1.15,2013-05-02 03:41:00,
2013-05-01 22:46:00,67.0,56.1,30.05,SE,139,6.0,7.0,68,0.00,,,0.00,Wunderground v.1.15,2013-05-02 03:46:00,
2013-05-01 22:51:00,66.5,56.0,30.06,SSW,194,5.0,5.0,69,0.00,,,0.00,Wunderground v.1.15,2013-05-02 03:51:00,
2013-05-01 22:57:00,66.0,55.9,30.06,SSE,163,3.0,5.0,70,0.00,,,0.00,Wunderground v.1.15,2013-05-02 03:57:00,
2013-05-01 23:01:00,65.8,55.7,30.06,SSE,152,3.0,4.0,70,0.00,,,0.00,Wunderground v.1.15,2013-05-02 04:01:00,
2013-05-01 23:02:00,65.8,55.7,30.05,SSE,147,3.0,4.0,70,0.00,,,0.00,Wunderground v.1.15,2013-05-02 04:02:00,
2013-05-01 23:05:00,65.9,55.8,30.06,SE,142,3.0,4.0,70,0.00,,,0.00,Wunderground v.1.15,2013-05-02 04:05:00,
2013-05-01 23:06:00,65.9,55.8,30.06,SE,143,4.0,4.0,70,0.00,,,0.00,Wunderground v.1.15,2013-05-02 04:06:00,
2013-05-01 23:07:00,65.9,55.8,30.06,SSE,147,4.0,4.0,70,0.00,,,0.00,Wunderground v.1.15,2013-05-02 04:07:00,
2013-05-01 23:12:00,65.8,55.7,30.06,SSE,149,4.0,4.0,70,0.00,,,0.00,Wunderground v.1.15,2013-05-02 04:12:00,
2013-05-01 23:17:00,65.4,55.7,30.06,SSE,164,3.0,4.0,71,0.00,,,0.00,Wunderground v.1.15,2013-05-02 04:17:00,
2013-05-01 23:22:00,65.3,55.7,30.05,SSW,198,3.0,4.0,71,0.00,,,0.00,Wunderground v.1.15,2013-05-02 04:22:00,
2013-05-01 23:27:00,65.3,56.0,30.05,South,173,3.0,4.0,72,0.00,,,0.00,Wunderground v.1.15,2013-05-02 04:27:00,
2013-05-01 23:33:00,65.2,55.9,30.06,SSW,204,3.0,4.0,72,0.00,,,0.00,Wunderground v.1.15,2013-05-02 04:33:00,
2013-05-01 23:38:00,65.4,55.7,30.06,SSW,209,4.0,4.0,71,0.00,,,0.00,Wunderground v.1.15,2013-05-02 04:38:00,
2013-05-01 23:43:00,65.0,55.8,30.06,SW,215,3.0,4.0,72,0.00,,,0.00,Wunderground v.1.15,2013-05-02 04:43:00,
2013-05-01 23:48:00,64.6,55.7,30.05,South,190,3.0,4.0,73,0.00,,,0.00,Wunderground v.1.15,2013-05-02 04:48:00,
2013-05-01 23:53:00,64.9,55.7,30.06,SSW,202,3.0,4.0,72,0.00,,,0.00,Wunderground v.1.15,2013-05-02 04:53:00,
2013-05-01 23:58:00,65.2,55.9,30.06,SSW,213,3.0,4.0,72,0.00,,,0.00,Wunderground v.1.15,2013-05-02 04:58:00,